This is the latest recevied weather packets stored in our database for station/object KB3UQE. If no packets are shown the sender has not sent any weather packets the latest 10 day(s).
| Time | Temp. | Humidity | Pressure | Rain* | Wind** | Luminosity | Snow |
|---|---|---|---|---|---|---|---|
| 1777401340 | 20° C | 47% | 1018.1 hPa | - | - | - | - |
| 1777400884 | 20° C | 47% | 1018.1 hPa | - | - | - | - |
| 1777399899 | 21.11° C | 45% | 1018.4 hPa | - | - | - | - |
| 1777399444 | 21.11° C | 45% | 1018.4 hPa | - | - | - | - |
| 1777398459 | 17.78° C | 49% | 1018.5 hPa | - | - | - | - |
| 1777398005 | 17.78° C | 49% | 1018.5 hPa | - | - | - | - |
| 1777397019 | 16.67° C | 50% | 1019 hPa | - | - | - | - |
| 1777396563 | 16.67° C | 50% | 1019 hPa | - | - | - | - |
| 1777395758 | 16.67° C | 50% | 1019.1 hPa | - | - | - | - |
| 1777395303 | 16.67° C | 50% | 1019.1 hPa | - | - | - | - |
| 1777394438 | 17.22° C | 49% | 1019.8 hPa | - | - | - | - |
| 1777393863 | 17.22° C | 49% | 1019.8 hPa | - | - | - | - |
| 1777392998 | 17.78° C | 49% | 1019.9 hPa | - | - | - | - |
| 1777392423 | 17.78° C | 49% | 1019.9 hPa | - | - | - | - |
| 1777391558 | 19.44° C | 47% | 1020.3 hPa | - | - | - | - |
| 1777390982 | 19.44° C | 47% | 1020.3 hPa | - | - | - | - |
| 1777390117 | 18.33° C | 48% | 1020.3 hPa | - | - | - | - |
| 1777389542 | 18.33° C | 48% | 1020.3 hPa | - | - | - | - |
| 1777388677 | 18.89° C | 48% | 1020.5 hPa | - | - | - | - |
| 1777388102 | 18.89° C | 48% | 1020.5 hPa | - | - | - | - |
| 1777387237 | 18.33° C | 49% | 1020.3 hPa | - | - | - | - |
| 1777386662 | 18.33° C | 49% | 1020.3 hPa | - | - | - | - |
| 1777385977 | 18.89° C | 48% | 1020 hPa | - | - | - | - |
| 1777385401 | 18.89° C | 48% | 1020 hPa | - | - | - | - |
| 1777384716 | 18.89° C | 47% | 1020 hPa | - | - | - | - |
* Rain since midnight (hover to see other rain measurements)
** Current wind speed in m/s (hover to see current wind gust speed)